星链-30148 (STARLINK-30148 )

导读 | 星芒AI

STARLINK-30148 是 SpaceX Starlink 项目中的一颗低轨通信卫星,属于第三代 Starlink 卫星(也称为 v1.5 或 Block V)。该卫星于 2023 年发射,旨在为全球提供高速互联网服务。它运行在约 540 公里的轨道高度,具备先进的通信能力和星间链路,以减少对地面基站的依赖。该卫星采用可展开的太阳能电池板供电,并具备自动避撞功能,以确保太空安全。Starlink 卫星群的部署正在逐步实现全球宽带覆盖,尤其服务于偏远地区。

基本信息
目录编号:
57617
目录名称:
STARLINK-30148
国际标识:
2023-119R
轨道中心:
EARTH
卫星名称:
星链-30148
卫星全名:
星链-30148 (STARLINK-30148 )
卫星状态:
在轨 (已飞行811 天)
发射日期:
2023-08-11 UTC
国别 :
美国 (US)
星等 :
--
轨道信息
数据来源 国际轨道数据
星历时间: 2025-10-30T10:00:51+0800
13小时前
查看轨道信息
半长轴: 6937.197km
偏心率: 0.0001633
轨道倾角: 43.001°
近地点辐角 279.756°
升交点赤经 71.785°
平近点角 80.310°
近地点: 557.929km
远地点: 560.195km
周期: 95.838分钟
每日圈数: 15.025425
详细信息
固有亮度:
5
最大亮度:
0.3
卫星平台:
Starlink v2.0 mini
覆盖范围:
全球
运营商:
太空探索技术公司
运营商所在国:
美国
制造商(研发单位):
太空探索技术公司
制造商所在国:
美国
使用方式:
暂无
卫星简介
星链(Starlink)计划是由太空探索技术公司(SpaceX)提出的一个巨型低轨卫星互联网星座项目,计划在2019年至2024年间在太空搭建由约1.2万颗卫星组成的“星链”网络,其中1584颗将部署在地球上空550千米处的近地轨道,并从2020年开始工作。该卫星仍在工作。
2D轨道图
3D轨道图
轨道高度分析图
轨道倾角分析图
轨道综合分析图
查看轨道综合分析图